User: anonymous   Login
Location: Gombori
(14.9797°N, 2.9419°W)
Time: 15:44:13
(UTC+00:00)
Language:

Cosmos 2058 - Orbit

View from above orbital plane
View from above orbital plane
View from above satellite
View from above satellite

Ground track
Ground track

The orbit data is extracted from the following two-line orbital elements,

1 20465U 90010A   21297.10065729  .00000486  00000-0  38517-4 0  9994
2 20465  82.4890 158.2413 0014937 342.5255  17.5452 14.98316612723348
Epoch (UTC): 24 October 2021 02:24:56
Eccentricity: 0.0014937
inclination: 82.4890°
perigee height: 562 km
apogee height: 582 km
right ascension of ascending node: 158.2413°
argument of perigee: 342.5255°
revolutions per day: 14.98316612
mean anomaly at epoch: 17.5452°
orbit number at epoch: 72334

The dashed part of the orbit path shows where the satellite is in the earth's shadow,  

DLR